CW9009 Weather Reports


Display with metric or nautical units.
time (UTC)temp
F
wind
direction
speed
MPH
gust
MPH
rain 1hr
in
rain 24hr
in
rain mn
in
humidity
%
barometer
mb
20190527130123 47 302 1.0 3.0 0.00 0.00 0.00 99 1008.1
20190527125123 47 302 1.0 2.0 0.00 0.00 0.00 99 1008.1
20190527124123 47 315 0.0 1.0 0.00 0.00 0.00 98 1008.1
20190527123125 47 115 0.0 1.0 0.00 0.00 0.00 98 1008.1
20190527122123 47 50 0.0 1.0 0.00 0.00 0.00 98 1008.1
20190527121124 47 0.0 0.0 0.00 0.00 0.00 98 1008.0
20190527120123 47 236 0.0 0.0 0.00 0.00 0.00 98 1008.0
20190527115123 47 222 0.0 1.0 0.00 0.00 0.00 98 1007.8
20190527114124 47 237 0.0 1.0 0.00 0.01 0.00 98 1007.7
20190527113124 48 269 1.0 1.0 0.00 0.02 0.00 97 1007.7
20190527112116 48 260 1.0 1.0 0.00 0.02 0.00 98 1007.7
20190527111116 48 275 1.0 1.0 0.00 0.02 0.00 98 1007.8
20190527110116 48 258 0.0 1.0 0.00 0.02 0.00 99 1007.8
20190527105117 48 347 0.0 0.0 0.00 0.02 0.00 99 1007.8
20190527104116 48 293 1.0 1.0 0.00 0.02 0.00 98 1007.7
20190527103120 48 262 1.0 1.0 0.00 0.02 0.00 98 1007.7
20190527102117 48 163 2.0 4.0 0.00 0.02 0.00 98 1007.9
20190527101125 48 156 0.0 0.0 0.00 0.02 0.00 97 1007.6
20190527100126 48 88 0.0 0.0 0.00 0.02 0.00 97 1007.8
20190527095126 48 0.0 0.0 0.00 0.02 0.00 98 1007.6
20190527094126 48 271 0.0 0.0 0.00 0.02 0.00 97 1007.4
20190527093126 48 121 0.0 0.0 0.00 0.02 0.00 95 1007.4
20190527092127 48 129 1.0 2.0 0.00 0.02 0.00 95 1007.4
20190527091121 48 116 2.0 4.0 0.00 0.02 0.00 95 1007.3
20190527090119 48 267 0.0 1.0 0.00 0.02 0.00 95 1007.3
20190527085119 48 253 1.0 2.0 0.00 0.02 0.00 94 1007.2
20190527084119 48 320 0.0 1.0 0.00 0.02 0.00 94 1007.2
20190527083119 48 306 0.0 1.0 0.00 0.02 0.00 93 1007.2
20190527082119 48 263 0.0 1.0 0.00 0.02 0.00 93 1007.2
20190527081119 48 192 1.0 1.0 0.00 0.02 0.00 92 1007.4
20190527080119 49 125 0.0 1.0 0.00 0.02 0.00 93 1007.4
20190527075119 49 62 0.0 0.0 0.00 0.02 0.00 92 1007.3
20190527074120 49 111 0.0 1.0 0.00 0.02 0.00 92 1007.4
20190527073120 49 135 0.0 0.0 0.00 0.02 0.00 90 1007.3
20190527072120 49 134 0.0 1.0 0.00 0.02 0.00 90 1007.3
20190527071121 50 0.0 0.0 0.00 0.02 0.00 90 1007.3
20190527070120 50 141 0.0 0.0 0.00 0.02 0.00 89 1007.2
20190527065121 50 130 0.0 1.0 0.00 0.02 0.00 89 1007.2
20190527064121 50 120 0.0 1.0 0.00 0.02 0.00 88 1007.1
20190527063121 51 108 0.0 0.0 0.00 0.02 0.00 88 1007.2
20190527062121 51 0.0 0.0 0.00 0.02 0.00 87 1007.1
20190527061122 51 0.0 0.0 0.00 0.02 0.00 87 1007.0
20190527060121 52 0.0 0.0 0.00 0.02 0.00 87 1006.9
20190527055121 52 152 0.0 1.0 0.00 0.02 0.02 85 1007.0
20190527054122 52 89 0.0 1.0 0.00 0.02 0.02 84 1007.0
20190527053122 53 0.0 0.0 0.00 0.02 0.02 84 1007.1
20190527052122 53 151 0.0 1.0 0.00 0.02 0.02 83 1007.1
20190527051122 53 273 0.0 0.0 0.00 0.02 0.02 83 1007.1
20190527050123 53 230 1.0 1.0 0.00 0.02 0.02 83 1007.0
20190527045124 53 237 0.0 1.0 0.00 0.03 0.02 83 1007.1
20190527044123 54 346 0.0 1.0 0.00 0.03 0.02 83 1007.1
20190527043123 54 257 1.0 2.0 0.00 0.04 0.02 82 1006.9
20190527042123 55 270 2.0 4.0 0.00 0.04 0.02 79 1006.7
20190527041123 55 0.0 0.0 0.00 0.04 0.02 79 1006.6
20190527040124 55 131 0.0 0.0 0.00 0.04 0.02 79 1006.6
20190527035123 56 91 0.0 0.0 0.00 0.04 0.02 78 1006.6
20190527034124 56 0.0 0.0 0.00 0.05 0.02 78 1006.3
20190527033124 57 267 0.0 1.0 0.00 0.05 0.02 77 1006.0
20190527032124 58 227 0.0 1.0 0.00 0.05 0.02 75 1006.1
20190527031125 58 0.0 0.0 0.00 0.05 0.02 73 1005.9
20190527030125 59 237 0.0 0.0 0.00 0.05 0.02 72 1005.9
20190527025124 59 0.0 0.0 0.00 0.05 0.02 71 1005.8
20190527024125 60 249 0.0 2.0 0.00 0.05 0.02 70 1005.7
20190527023125 60 0.0 0.0 0.00 0.05 0.02 70 1005.7
20190527022125 60 100 0.0 1.0 0.00 0.05 0.02 68 1005.6
20190527021125 60 0.0 0.0 0.00 0.05 0.02 67 1005.4
20190527020126 60 0.0 0.0 0.00 0.05 0.02 66 1005.4
20190527015126 61 101 0.0 2.0 0.00 0.05 0.02 65 1005.3
20190527014126 61 0.0 0.0 0.00 0.05 0.02 66 1005.3
20190527013126 61 346 0.0 1.0 0.00 0.05 0.02 65 1005.3
20190527012126 61 0.0 0.0 0.00 0.05 0.02 65 1005.2
20190527011126 61 0.0 0.0 0.00 0.05 0.02 65 1005.3
20190527010127 61 272 2.0 3.0 0.00 0.05 0.02 65 1005.2
20190527005127 61 166 1.0 3.0 0.00 0.05 0.02 65 1005.0
20190527004127 62 288 0.0 1.0 0.00 0.05 0.02 65 1004.8
20190527003127 62 71 0.0 1.0 0.00 0.05 0.02 65 1005.1
20190527002127 62 275 0.0 1.0 0.00 0.05 0.02 63 1005.2
20190527001128 62 99 2.0 4.0 0.00 0.05 0.02 65 1005.2
20190527000128 62 97 1.0 2.0 0.00 0.05 0.02 65 1004.7
20190526235128 62 0.0 0.0 0.00 0.05 0.02 63 1004.5
20190526234128 63 214 3.0 5.0 0.00 0.05 0.02 62 1004.3
20190526233128 64 249 5.0 8.0 0.00 0.05 0.02 61 1004.0
20190526232128 65 283 3.0 4.0 0.00 0.05 0.02 57 1003.9
20190526231129 68 123 2.0 4.0 0.00 0.05 0.02 55 1003.7
20190526230129 68 131 4.0 5.0 0.00 0.05 0.02 49 1003.5
20190526225129 75 81 4.0 8.0 0.00 0.05 0.02 44 1003.8
20190526224129 76 141 1.0 3.0 0.00 0.05 0.02 39 1003.0
20190526223130 78 3 0.0 0.0 0.00 0.05 0.02 40 1003.1
20190526222129 77 111 4.0 5.0 0.00 0.05 0.02 39 1003.1
20190526221130 77 154 2.0 4.0 0.00 0.05 0.02 42 1003.0
20190526220130 78 104 2.0 3.0 0.00 0.05 0.02 39 1003.0
20190526215130 78 95 1.0 2.0 0.00 0.05 0.02 40 1003.1
20190526214130 79 127 4.0 5.0 0.00 0.05 0.02 44 1002.9
20190526213130 77 110 2.0 4.0 0.00 0.05 0.02 45 1003.0
20190526212131 76 96 2.0 3.0 0.00 0.05 0.02 46 1003.0
20190526211131 75 142 2.0 4.0 0.00 0.05 0.02 46 1003.1
20190526210131 75 81 2.0 4.0 0.00 0.05 0.02 41 1003.1
20190526205131 75 65 0.0 2.0 0.00 0.05 0.02 45 1003.0
20190526204131 74 103 2.0 3.0 0.00 0.05 0.02 46 1003.1
20190526203117 73 115 2.0 3.0 0.00 0.05 0.02 49 1003.4
20190526202116 72 224 3.0 5.0 0.00 0.05 0.02 50 1003.7
20190526201116 72 150 3.0 5.0 0.00 0.05 0.02 49 1003.8
20190526200117 72 128 5.0 10.0 0.00 0.05 0.02 47 1003.9
20190526195117 73 124 2.0 5.0 0.00 0.05 0.02 49 1003.8
20190526194117 72 88 3.0 5.0 0.00 0.05 0.02 50 1003.9
20190526193117 71 115 5.0 8.0 0.00 0.05 0.02 51 1004.1
20190526192117 71 147 5.0 8.0 0.00 0.05 0.02 52 1004.2
20190526191118 70 130 1.0 2.0 0.00 0.05 0.02 58 1004.3
20190526190118 70 88 2.0 4.0 0.00 0.05 0.02 60 1004.4
20190526185119 69 103 2.0 4.0 0.00 0.05 0.02 58 1004.4
20190526184118 71 247 1.0 2.0 0.00 0.05 0.02 60 1004.5
20190526183118 70 333 0.0 1.0 0.00 0.05 0.02 63 1004.6
20190526182119 69 136 0.0 3.0 0.00 0.05 0.02 65 1004.8
20190526181119 68 0.0 0.0 0.00 0.06 0.02 63 1005.0
20190526180119 67 79 2.0 4.0 0.00 0.06 0.02 66 1005.1
20190526175120 66 150 1.0 3.0 0.00 0.06 0.02 70 1005.1
20190526174119 65 166 2.0 3.0 0.00 0.06 0.02 71 1005.2
20190526173120 64 287 0.0 1.0 0.00 0.06 0.02 73 1005.3
20190526172120 63 289 1.0 3.0 0.00 0.06 0.02 75 1005.4
20190526171120 62 288 1.0 2.0 0.00 0.06 0.02 75 1005.4
20190526170120 62 96 2.0 3.0 0.00 0.06 0.02 76 1005.4
20190526165121 61 0.0 0.0 0.00 0.06 0.02 77 1005.5
20190526164120 60 269 0.0 1.0 0.00 0.06 0.02 78 1005.6
20190526163120 60 0.0 0.0 0.00 0.06 0.02 78 1005.7
20190526162121 59 219 2.0 4.0 0.00 0.06 0.02 82 1005.7
20190526161121 58 285 2.0 4.0 0.00 0.06 0.02 84 1005.7
20190526160121 57 319 0.0 2.0 0.00 0.06 0.02 83 1005.7
20190526155122 57 242 1.0 1.0 0.00 0.06 0.02 83 1005.6
20190526154121 56 0.0 0.0 0.00 0.06 0.02 84 1005.5
20190526153121 55 0.0 0.0 0.00 0.06 0.02 87 1005.6
20190526152121 55 0.0 0.0 0.00 0.06 0.02 87 1005.6
20190526151122 54 305 0.0 0.0 0.00 0.06 0.02 87 1005.5
20190526150122 54 291 3.0 6.0 0.00 0.06 0.02 89 1005.5
20190526145122 54 281 2.0 4.0 0.00 0.06 0.02 92 1005.5
20190526144122 53 0.0 0.0 0.00 0.06 0.02 92 1005.5
20190526143123 53 196 0.0 1.0 0.00 0.06 0.02 94 1005.6
20190526142122 52 251 1.0 2.0 0.00 0.06 0.02 94 1005.5
20190526141123 52 0.0 0.0 0.00 0.06 0.02 92 1005.5
20190526140123 51 206 2.0 6.0 0.00 0.06 0.02 92 1005.5
20190526135124 51 81 1.0 3.0 0.00 0.06 0.02 92 1005.2
20190526134123 50 104 1.0 3.0 0.00 0.06 0.02 93 1005.3
20190526133123 50 252 0.0 0.0 0.00 0.06 0.02 93 1005.3
20190526132124 50 113 0.0 2.0 0.00 0.06 0.02 94 1005.2
20190526131124 50 74 1.0 3.0 0.00 0.06 0.02 97 1005.1